Location: Pl�tzky
(52.0521°N, 11.8020°E)
Time: 15:41:51
(UTC+00:00)

CORIOLIS - Pass Details

Date: 22 November 2019
Orbit: 819 x 838 km, 98.7° (Epoch: 05 December)

Event Time Altitude Azimuth Distance (km) Brightness Sun altitude
Rises 16:26:00 0° 159° (SSE) 3,367 7.3 -10.9°
Reaches altitude 10° 16:28:21 10° 159° (SSE) 2,440 6.6 -11.3°
Maximum altitude 16:33:46 83° 73° (ENE) 850 4.1 -12.0°
Drops below altitude 10° 16:39:15 10° 346° (NNW) 2,465 6.6 -12.9°
Sets 16:41:37 0° 346° (NNW) 3,405 7.3 -13.2°
